Location: Squamish
(49.7000°N, 123.1500°W)
Time: 15:18:51
(UTC-07:00)

Daily predictions for brighter satellites

Satellite Brightness Start Highest point End
(mag) Time Altitude Azimuth Time Altitude Azimuth Time Altitude Azimuth
CZ-4C R/B 3.0 19:13:22 10° WSW 19:18:49 55° NW 19:25:05 10° NE
Cosmos 1544 4.1 19:19:30 10° SSE 19:22:38 25° E 19:25:46 10° NNE
Resurs 1-3 4.5 19:18:57 10° SE 19:22:47 30° ENE 19:26:37 10° N
SAR-Lupe-4 3.5 19:19:23 10° SSE 19:22:55 66° ENE 19:26:29 10° N
ATLAS 5 CENTAUR R/B 2.0 19:19:59 10° SSW 19:24:46 62° SE 19:30:01 10° NE
Cosmos 2333 Rocket 3.7 19:20:03 10° WSW 19:25:28 40° NW 19:30:55 10° NNE
ATLAS CENTAUR R/B 4.0 19:26:36 10° SSW 19:32:08 60° SE 19:49:46 10° NE
COSMO-SKYMED 1 2.5 19:28:01 10° NNE 19:32:24 83° ESE 19:36:45 10° SSW
ATLAS 3B R/B 4.0 19:25:26 10° W 19:32:31 41° NNW 19:39:17 10° NE
Resurs 01 Rocket 2.0 19:29:12 10° SE 19:33:27 46° ENE 19:37:43 10° N
SJ-6B 2.9 19:32:58 10° SSE 19:37:01 82° ENE 19:41:10 10° NNW
Cosmos 1076 Rocket 4.0 19:32:45 10° NNW 19:37:04 68° W 19:41:24 10° S
Cosmos 2237 Rocket 3.7 19:32:48 10° WSW 19:38:05 38° NW 19:43:22 10° NNE
Cosmos 1484 Rocket 3.8 19:35:39 10° S 19:39:27 52° W 19:43:20 10° NNW
METEOR-M 4.1 19:36:05 10° SSE 19:41:23 66° ENE 19:46:43 10° N
BREEZE-M DEB (TANK) 4.5 19:22:56 10° W 19:42:13 70° S 19:46:53 13° ESE
Meteor 1-29 4.2 19:40:03 10° NE 19:42:52 22° E 19:45:37 10° SSE
Aureole 2 Rocket 4.1 19:39:21 10° SW 19:43:30 46° WNW 19:47:29 10° NNE
ALOS 2.9 19:39:17 10° SE 19:43:31 36° ENE 19:47:47 10° N
Cosmos 2151 4.0 19:40:35 10° NNE 19:44:11 26° ENE 19:47:45 10° SE
ASTEX 1 4.1 19:43:26 10° NNE 19:47:46 30° E 19:52:04 10° SSE
Cosmos 1766 Rocket 4.1 19:44:18 10° NNW 19:48:38 63° W 19:52:55 10° S
GP-B 4.3 19:45:43 10° NNE 19:49:15 22° E 19:52:45 10° SE
FengYun 1-2 T 4.3 19:45:46 10° SE 19:51:08 58° ENE 19:56:32 10° N
ISS -2.2 19:49:00 10° SSW 19:51:49 28° SE 19:53:27 18° E
Cosmos-2242 3.0 19:48:20 10° S 19:52:41 72° E 19:57:06 10° NNE
Nadezhda 4 Rocket 4.0 19:47:35 10° N 19:53:55 75° E 20:00:07 10° SSE
Cosmos 1758 3.3 19:50:49 10° S 19:54:55 86° E 19:59:04 10° N
Abrixas 3.5 19:52:43 10° SW 19:55:25 31° SSE 19:56:48 21° ESE
NOSS 3-2 (A) 3.9 19:52:32 10° SW 19:58:44 71° NW 20:05:39 10° NE
Cosmos 2221 4.0 19:58:44 17° E 19:58:46 17° E 20:01:33 10° NE
Meteor 1-28 Rocket 3.1 19:57:21 10° NNE 20:01:06 85° ESE 20:04:49 10° SSW
SL-16 R/B 3.2 19:55:41 10° SW 20:01:13 51° NW 20:06:48 10° NNE
FENGYUN 3A 3.8 19:57:27 10° SE 20:02:40 54° ENE 20:07:57 10° N
Cosmos 1092 Rocket 3.9 19:58:48 10° N 20:05:01 68° ENE 20:11:09 10° SSE
Cosmos 724 4.3 20:02:03 10° SW 20:08:02 88° SE 20:14:13 10° NE
Cosmos 1346 4.4 20:05:25 10° NNW 20:08:16 42° W 20:11:07 10° S
Cosmos 1328 4.1 20:06:15 10° N 20:10:05 45° ENE 20:13:01 16° SE
ERBS 2.3 20:07:28 10° NW 20:10:59 77° NNE 20:12:44 27° ESE
CZ-2D R/B 3.6 20:08:06 15° SE 20:11:04 46° ENE 20:14:48 10° N
SL-14 R/B 4.2 20:07:42 10° N 20:11:20 30° ENE 20:12:44 24° ESE
Cosmos 482 Debris 3.6 20:10:14 10° WNW 20:12:24 54° NNE 20:13:30 31° ENE
Cosmos 2026 Rocket 4.2 20:08:46 10° N 20:14:40 48° ENE 20:20:32 10° SSE
Cosmos 2251 Rocket 4.3 20:11:52 10° SSE 20:16:18 28° E 20:20:44 10° NE
H-2A R/B 2.8 20:16:35 18° SE 20:19:20 55° ENE 20:23:06 10° N
Cosmos 1655 Rocket 4.2 20:13:43 10° N 20:19:45 48° ENE 20:24:52 14° SE
Cosmos 1331 Rocket 4.1 20:14:42 10° NNW 20:19:59 60° ENE 20:23:44 19° SE
Cosmos 1500 Rocket 3.7 20:15:40 10° NNW 20:20:08 81° W 20:24:35 10° S
CENTAUR R/B 2.7 20:15:03 10° SSW 20:20:58 51° ESE 20:27:38 10° NE
Cosmos 1943 Rocket 2.3 20:16:55 10° NNW 20:22:30 58° NE 20:25:55 23° SE
Cosmos 1805 4.5 20:21:27 10° SSW 20:25:14 45° WNW 20:29:03 10° N
Helios 1A 3.4 20:21:32 10° S 20:25:42 63° WSW 20:29:55 10° NNW
Cosmos 1842 Rocket 3.4 20:22:05 10° S 20:26:24 79° E 20:30:48 10° NNE
Cosmos 1634 Rocket 4.0 20:20:33 10° S 20:26:37 57° E 20:32:40 10° NNE
Cosmos 1939 Rocket 4.1 20:31:12 24° ENE 20:31:12 24° ENE 20:34:05 10° N
Cosmos 1666 Rocket 4.3 20:29:36 10° N 20:33:40 33° ENE 20:34:00 33° E
Cosmos 2369 Rocket 2.7 20:28:48 10° NW 20:34:23 61° WSW 20:39:58 10° SSE
Cosmos 1302 Rocket 4.2 20:29:27 10° NNW 20:34:31 49° ENE 20:36:30 33° ESE
Cosmos 2195 Rocket 4.4 20:30:53 10° N 20:37:14 77° E 20:43:35 10° SSE
Cosmos 1733 3.1 20:34:50 10° S 20:38:42 89° E 20:42:35 10° N
Spot 2 Rocket 4.5 20:34:12 10° S 20:39:03 47° W 20:43:56 10° NNW
NOSS 3-2 (C) 4.3 20:33:53 10° WSW 20:40:03 55° NW 20:46:53 10° NE
Cosmos 1674 4.0 20:36:23 10° NNW 20:40:06 42° W 20:43:46 10° SSW
Cosmos 1943 3.1 20:34:54 10° SSW 20:40:29 70° ESE 20:46:06 10° NNE
Cosmos 1048 Rocket 4.3 20:39:43 10° SSW 20:44:58 70° WNW 20:50:12 10° NNE
Cosmos 1953 4.5 20:42:31 10° SW 20:45:59 28° WNW 20:49:27 10° N
Helios 1B rocket 2.9 20:41:54 10° N 20:46:00 63° WNW 20:50:03 10° SSW
CZ-4B DEB 3.6 20:46:01 21° S 20:47:56 51° W 20:51:08 10° NNW
Cosmos 1603 4.5 20:43:32 10° SW 20:49:10 54° NW 20:54:51 10° NNE
Cosmos 158 Rocket 3.7 20:44:28 10° SSW 20:49:21 83° ESE 20:54:17 10° NNE
Envisat 3.4 20:49:04 39° E 20:49:53 43° ENE 20:54:41 10° N
Cosmos 1470 3.4 20:48:01 10° SSW 20:51:50 54° WNW 20:55:40 10° N
Cosmos 1174 3.6 20:50:58 10° SW 20:55:19 87° SE 20:56:00 58° NE
Cosmos 1703 4.1 20:52:13 10° N 20:55:04 36° NE 20:55:04 36° NE
Gbstr 26 Del rocket 3.4 20:52:33 10° SW 20:57:06 57° SSE 20:58:06 49° ESE
USA 186 3.5 20:59:17 21° NNW 20:59:17 21° NNW 21:00:19 10° NNW
BREEZE-M DEB (TANK) 3.9 20:50:10 10° WSW 21:01:22 82° S 21:02:55 45° E
Sich 1 3.2 20:58:39 10° N 21:02:37 54° NE 21:02:37 54° NE
USA 215 3.3 21:00:26 32° E 21:03:15 53° SE 21:09:36 10° SSW
Cosmos 2058 3.1 21:03:02 10° NNW 21:07:08 68° W 21:08:17 45° SSW
Cosmos 1626 4.0 21:04:41 10° N 21:06:16 21° NNE 21:06:16 21° NNE
CZ-4C R/B 4.2 21:03:47 10° WNW 21:08:46 26° NNW 21:14:18 10° NE
ATLAS 5 CENTAUR R/B 3.4 21:05:13 10° W 21:09:49 35° NNW 21:14:52 10° NE
Resurs 01 Rocket 4.0 21:06:36 10° SW 21:10:08 23° W 21:13:41 10° NW
ERS-1 Rocket 2.8 21:16:05 67° SE 21:16:43 78° ENE 21:21:46 10° NNW
H-2A R/B 3.9 21:20:17 17° NE 21:20:17 17° NE 21:22:28 10° NNE
SL-8 R/B 3.7 21:15:41 10° WSW 21:20:08 68° SSW 21:20:08 68° SSW
ALOS 3.9 21:16:50 10° SSW 21:21:00 32° W 21:25:12 10° NNW
Cosmos 1656 Rocket 3.4 21:16:57 10° NNW 21:22:25 77° ENE 21:22:55 71° ESE
ATLAS 3B R/B 4.4 21:19:08 10° WNW 21:25:11 26° N 21:30:12 13° NE
Meteor 1-16 Rocket 4.3 21:20:12 10° SSW 21:25:29 68° WNW 21:30:51 10° N
GP-B 4.2 21:22:33 10° N 21:26:47 43° W 21:30:21 14° SSW
ISS -1.0 21:24:50 10° WSW 21:26:08 22° WSW 21:26:08 22° WSW
Cosmos 1437 Rocket 3.7 21:30:16 44° NNW 21:30:16 44° NNW 21:33:15 10° N
Meteor 2-1 Rocket 4.3 21:23:54 10° SSW 21:29:44 84° WNW 21:35:41 10° N
ARGOS 4.1 21:32:55 34° NE 21:32:55 34° NE 21:36:51 10° N
Cosmos 1805 Rocket 4.3 21:27:50 10° NNW 21:32:09 50° W 21:32:48 46° SW
Cosmos 2180 Rocket 4.3 21:29:46 37° S 21:32:23 85° E 21:38:35 10° N
H-2A R/B 3.2 21:34:35 37° NNE 21:34:35 37° NNE 21:37:30 10° N
Cosmos 2221 3.1 21:35:32 53° W 21:35:55 55° WNW 21:40:11 10° N
SPOT 5 3.9 21:40:04 33° N 21:40:04 33° N 21:42:38 10° N
Cosmos 1633 Rocket 3.8 21:38:48 10° NNW 21:42:17 51° NW 21:42:17 51° NW
Cosmos 2279 Rocket 4.2 21:39:20 10° SSW 21:45:30 68° WNW 21:51:43 10° N
Cosmos 2285 Rocket 4.3 21:42:28 10° NNW 21:48:16 51° NE 21:48:16 51° NE
Cosmos 494 Rocket 4.4 21:52:37 10° SW 21:57:44 58° WNW 22:02:51 10° NNE
Cosmos 2251 Rocket 4.4 21:53:18 10° SW 21:58:21 48° WNW 22:03:27 10° NNE
Cosmos 2266 Rocket 3.9 21:52:04 10° N 21:58:26 84° W 21:58:35 83° SW
Cosmos 1980 Rocket 4.0 22:00:31 10° N 22:03:58 20° NNE 22:03:58 20° NNE
Cosmos 1943 Rocket 3.8 22:01:15 10° NW 22:05:54 27° WSW 22:07:28 24° SW
CENTAUR R/B 3.4 22:05:31 10° WSW 22:11:44 50° NW 22:18:47 10° NE
Terra 4.0 22:24:58 18° N 22:24:58 18° N 22:26:21 10° N
SL-16 R/B 4.4 22:36:10 10° N 22:38:54 16° NNE 22:38:54 16° NNE
Lacrosse 4 Rocket 4.3 22:38:31 10° NNW 22:39:29 15° N 22:39:29 15° N
USA 215 3.7 22:47:51 54° W 22:47:51 54° W 22:52:56 10° WSW
ATLAS 5 CENTAUR R/B 4.3 22:52:11 10° NW 22:56:07 20° N 22:57:09 19° N
H-2A R/B 4.0 23:00:56 25° NNW 23:00:56 25° NNW 23:03:01 10° NNW
CZ-4C R/B 4.2 22:53:59 10° NW 22:59:23 27° NNE 23:00:08 27° NNE
Cosmos 2322 Rocket 4.3 22:57:07 10° N 22:59:41 19° NNE 22:59:41 19° NNE
Cosmos 1697 Rocket 4.5 23:04:11 10° NNW 23:06:43 27° NNW 23:06:43 27° NNW
ATLAS 3B R/B 3.9 23:11:31 10° NW 23:17:26 34° NNE 23:17:26 34° NNE
Cosmos 1980 Rocket 4.4 23:43:55 10° NNW 23:45:44 21° NNW 23:45:44 21° NNW
